Погода Янги-Юган

Погода Янги-Юган : погода сейчас, прогноз погоды и архив. Всё, что Вы хотите узнать о погоде Янги-Юган!

Хотите узнать прогноз погоды Янги-Юган? Тогда Вам сюда: Погода Янги-Юган

Поиск расширенной информации на нашем сайте:

Другие новости

Новости СМИ2

Главная страница сайта

Новости сайта

03.07.2017

Напоминаем, что на нашем специализированном сайте Метеоцентр.Азия вы можете получить высокодетализированные автоматические прогнозы погоды по пунктам России, СНГ и мира в авиационном формате (включающие направление и скорость ветра, видимость, явления погоды, количество и форму облачности, нижнюю и верхнюю границу облачности).


Погода Янги-Юган - сегодня

Время (UTC), дата Ветер
(°,м/с) 
Видим.   Явления Облачность Т
(°С)
Тd
(°С)
f(%) Тe
(°С)
Pmin
(гПа)
dP
(гПа)
Po
(мм)
O2
(г/м3)
Тmin Tmax R s Состояние
почвы
21 13.08.18 180 (Ю) 10 км  слаб. ливневой дождь  10/10 600 м кучево-дожд. 
[Cb cap]
+15.5 +13.4 87 +22  996.2  -1  744  281           
00 14.08.18 190 (Ю) 10 км  {ливн. осадки}  6/4 600 м верхняя 
[Sc|Cc]
+15.2 +13.2 88 +22  995.2  -1  743  281           
03 14.08.18 200 (Ю) 3{10}  20000 м    9/4 600 м средняя, верхняя 
[Cu Sc|Ac trans|Ci sp]
+17.8 +14.5 81 +26  995  -0.1  743  278  +14.9       
06 14.08.18 220 (ЮЗ) 4{10}  20000 м    4/1 600 м верхняя 
[Cu hum|Cc]
+21.2 +13.7 62 +28  995.1  0.1  743  275           
15 14.08.18 250 (З) 4-10{17}  20000 м    6/6 600 м 
[Cu med, cong]
+17.9 +7.6 51 +18  999.3  1.8  746  281    +22.9       
18 14.08.18 240 (ЮЗ) 20000 м    3/0 верхняя 
[Ci sp]
+13.6 +8.6 72 +14  1001.4  748  286           
21 14.08.18 270 (З) 20000 м    10/0 средняя 
[Ac und]
+10.4 +6.8 78 +11  1004  2.5  750  290           
00 15.08.18 240 (ЮЗ) 20000 м    3/3 600 м 
[Sc]
+7.3 +5.8 90 +7  1005.8  1.8  751  294           
06 15.08.18 260 (З) 20000 м    4/3 600 м средняя, верхняя 
[Cu hum|Ac trans|Ci fib]
+14.1 +4.8 53 +14  1007.9  0.7  753  288           
09 15.08.18 290 (З) 20000 м    8/3 600 м верхняя 
[Cu med, cong|Ci sp]
+15.8 +4.3 46 +16  1008.5  0.7  753  286           
12 15.08.18 290 (З) 20000 м    8/3 600 м верхняя 
[Cu hum|Ci sp]
+15 +4.3 49 +16  1008.7  0.2  753  287           
18 15.08.18 тихо ()   20000 м    3/0 средняя 
[Ac trans]
+7.4 +6 91 +7  1009.1  0.1  754  295           
21 15.08.18 тихо ()   20000 м  местами туман поземный  3/0 средняя 
[Ac trans]
+4.9 +3.7 92 +5  1009  -0.1  754  298           
00 16.08.18 140 (ЮВ) 1000 м  дымка  10/10 300 м 
[St]
+3.7 +2.5 92 +5  1009.4  0.3  754  299           
03 16.08.18 250 (З) 20000 м    9/4 600 м средняя 
[Sc|Ac trans]
+9.7 +8.5 92 +11  1009.6  0.3  754  292  +3.5        влажная 
06 16.08.18 260 (З) 20000 м    8/8 600 м 
[Cu med, cong]
+15 +5.8 54 +16  1009.3  -0.2  754  287           
09 16.08.18 260 (З) 20000 м    10/10 600 м 
[Cu Sc]
+13.5 +5.4 58 +14  1009.8  0.5  754  289           
12 16.08.18 260 (З) н/о    н/о 
+13.7 +4.6 54 +14  1010  0.2  754  289           
18 16.08.18 тихо ()   20000 м    6/3 600 м средняя 
[Sc|Ac trans]
+7.5 +5.3 86 +8  1010.3  0.1  755  295           
21 16.08.18 270 (З) 20000 м    3/3 600 м 
[Sc]
+7 +5.6 91 +8  1010.1  -0.2  754  295           
00 17.08.18 280 (З) 20000 м    ясно 
+6.1 +5 93 +7  1010.3  0.2  755  297           
03 17.08.18 290 (З) 20000 м    9/3 600 м средняя 
[Sc|Ac trans]
+10.6 +8.1 85 +11  1011.3  755  292  +4.8        влажная 
06 17.08.18 280 (З) н/о    н/о 
+12 +7.1 72 +12  1011.6  0.4  756  290           
09 17.08.18 250 (З) 20000 м    9/9 600 м кучево-дожд. 
[Cb cap]
+14.6 +4.2 50 +15  1012  0.4  756  288           
12 17.08.18 010 (С) н/о    н/о 
+12.4 +6.7 68 +14  1012.8  756  290           
Время (UTC), дата Ветер
(°,м/с) 
Видим.   Явления Облачность Т
(°С)
Тd
(°С)
f(%) Тe
(°С)
Pmin
(гПа)
dP
(гПа)
Po
(мм)
O2
(г/м3)
Тmin Tmax R s Состояние
почвы

Для получения пояснительной информации подведите курсор к названию столбца.

ПОГОДА Янги-Юган - архив

Всё, что Вы хотите узнать о погоде Янги-Юган - удобно и подробно!

Выберите нужную дату (начиная с 1 января 2015* года) и нажмите кнопку "Найти".
Будут отображены архивные сводки погоды по пункту Янги-Юган, начиная с указанной даты.


Отображать данные в формате CSV (для использования в таблицах Excel)


Внимание! Наш архив погоды предназначен исключительно для личного некоммерческого использования в познавательных целях. Если Вам необходимы официальные справки о состоянии погоды (для производственных, юридических, коммерческих и т.п. целей), обращайтесь в органы Росгидромета.

*Примечание: данная дата относится к архиву по метеостанциям СССР (Россия, СНГ, Балтия).
Архив по метеостанциям Зарубежной Европы и Азии (кроме Китая) хранится 10 дней, по другим регионам земного шара (Китай, Африка, Америка, Австралия, Океания) - 1 день.

Янги-Юган - район местоположения метеостанции


Название, широта, долгота, высота метеостанции:
Янги-Юган 66.1°ш. 68.7°д. 40 м над ур. моря [Российская Федерация]

Дополнительная информация

В oтличие oт бoльшинства пoгoдных сайтoв мы публикуем пoдрoбную метеoинфoрмацию в детальнoм прoфессиoнальнoм фoрмате.

Характеристики температуры и влажнoсти вoздуха измеряются на высoте 2 м в тени вдали oт зданий и деревьев.
Скoрoсть ветра измеряется на высoте 10 м (на урoвне рoста челoвека скoрoсть ветра ниже в 1.5-2 раза). Если метеoстанция нахoдится в гoрoде или в лесу, тo скoрoсть ветра занижена на 2-4 м/с пo сравнению с oткрытым местoм. Скoрoсть ветра над акватoриями крупных рек и oзёр, а также на вершинах хoлмoв на 2-5 м/с выше, чем в oбычных услoвиях.
Атмoсфернoе давление в разных тoчках местнoсти мoжет значительнo oтличаться oт давления на метеoстанции, в зависимoсти oт услoвий рельефа (при пoдъёме на 10 м давление пoнижается примернo на 1 мм рт.ст.).